Copper Mountain, CO

2:46 AM MST on December 18, 2017 (GMT -0700)
Copper Mountain

Weather History for KCCU - July, 2013

Change the Weather History Date:

Friday, July 5, 2013

  Actual Average Record
Temperature  
Mean Temperature 53 °F -  
Max Temperature 60 °F - 72 °F (2017)
Min Temperature 46 °F - 33 °F (2010)
Degree Days  
Heating Degree Days 12    
Month to date heating degree days  
Cooling Degree Days 0    
Month to date cooling degree days  
Growing Degree Days 3 (Base 50)    
Moisture  
Dew Point 39 °F    
Average Humidity 54    
Maximum Humidity 76    
Minimum Humidity 44    
Precipitation  
Precipitation 0.01 in - 0.21 in (2004)
Sea Level Pressure  
Sea Level Pressure 30.48 in    
Wind  
Wind Speed 16 mph (WSW)    
Max Wind Speed 34 mph    
Max Gust Speed 41 mph    
Visibility 10 miles    
Events Rain , Thunderstorm    
T = Trace of Precipitation, MM = Missing Value Source: NWS Daily Summary

Daily Weather History Graph

Daily Weather History Graph

Search for Another Location

Airport or City:

Trip Planner

Search our weather history database for the weather conditions in past years. The results will help you decide how hot, cold, wet, or windy it might be!

Date:

Astronomy

Jul. 05, 2013 Rise Set
Actual Time 5:43 AM MDT 8:34 PM MDT
Civil Twilight 5:11 AM MDT 9:06 PM MDT
Nautical Twilight 4:30 AM MDT 9:47 PM MDT
Astronomical Twilight 3:44 AM MDT 10:33 PM MDT
Moon 3:44 AM MDT (7/5) 6:32 PM MDT (7/5)
Length of Visible Light 15h 55m
Length of Day
14h 51m
Waning Crescent, 6% of the Moon is Illuminated
Jul 5
Waning Crescent
Jul 8
New
Jul 15
First Quarter
Jul 22
Full
Jul 29
Last Quarter

Hourly Weather History & Observations

Time (MDT) Temp. Windchill Dew Point Humidity Pressure Visibility Wind Dir Wind Speed Gust Speed Precip Events Conditions
12:04 AM 53.6 °F - 33.8 °F 47% 30.51 in 10.0 mi South 21.9 mph - N/A   Clear
12:52 AM 53.6 °F - 33.8 °F 47% 30.49 in 10.0 mi South 20.7 mph - N/A   Scattered Clouds
1:12 AM 53.6 °F - 33.8 °F 47% 30.49 in 10.0 mi South 23.0 mph - N/A   Scattered Clouds
1:32 AM 53.6 °F - 33.8 °F 47% 30.49 in 10.0 mi South 24.2 mph - N/A   Mostly Cloudy
1:52 AM 53.6 °F - 33.8 °F 47% 30.48 in 10.0 mi South 23.0 mph - N/A   Overcast
2:12 AM 53.6 °F - 33.8 °F 47% 30.48 in 10.0 mi South 20.7 mph - N/A   Overcast
2:32 AM 51.8 °F - 35.6 °F 54% 30.49 in 10.0 mi West 18.4 mph - N/A   Light Drizzle
2:52 AM 51.8 °F - 37.4 °F 58% 30.49 in 10.0 mi West 12.7 mph - N/A   Overcast
3:12 AM 51.8 °F - 35.6 °F 54% 30.50 in 10.0 mi SSW 9.2 mph - N/A   Overcast
3:32 AM 51.8 °F - 37.4 °F 58% 30.50 in 10.0 mi WSW 10.4 mph 21.9 mph N/A   Light Drizzle
3:52 AM 51.8 °F - 37.4 °F 58% 30.49 in 10.0 mi South 15.0 mph 18.4 mph N/A   Overcast
4:12 AM 48.2 °F - 37.4 °F 66% 30.47 in 10.0 mi South 23.0 mph - N/A   Overcast
4:32 AM 46.4 °F 39.0 °F 37.4 °F 71% 30.47 in 10.0 mi South 19.6 mph - N/A   Overcast
4:52 AM 51.8 °F - 37.4 °F 58% 30.47 in 10.0 mi SW 8.1 mph 19.6 mph N/A   Mostly Cloudy
5:12 AM 53.6 °F - 39.2 °F 58% 30.47 in 10.0 mi SW 5.8 mph - N/A Thunderstorm Mostly Cloudy
5:32 AM 53.6 °F - 39.2 °F 58% 30.47 in 10.0 mi SSW 8.1 mph 20.7 mph N/A   Mostly Cloudy
5:52 AM 51.8 °F - 37.4 °F 58% 30.47 in 10.0 mi SSW 10.4 mph 17.3 mph N/A   Scattered Clouds
6:12 AM 53.6 °F - 37.4 °F 54% 30.47 in 10.0 mi WSW 10.4 mph 16.1 mph N/A   Clear
6:32 AM 53.6 °F - 37.4 °F 54% 30.47 in 10.0 mi WSW 16.1 mph 26.5 mph N/A   Clear
6:52 AM 53.6 °F - 35.6 °F 51% 30.47 in 10.0 mi West 16.1 mph 27.6 mph N/A   Scattered Clouds
7:12 AM 53.6 °F - 35.6 °F 51% 30.47 in 10.0 mi West 18.4 mph 26.5 mph N/A Thunderstorm Thunderstorm
7:32 AM 53.6 °F - 35.6 °F 51% 30.47 in 10.0 mi WSW 13.8 mph 23.0 mph N/A   Mostly Cloudy
7:52 AM 55.4 °F - 37.4 °F 51% 30.48 in 10.0 mi West 13.8 mph 23.0 mph N/A   Mostly Cloudy
8:12 AM 55.4 °F - 39.2 °F 54% 30.48 in 10.0 mi West 11.5 mph 17.3 mph N/A   Overcast
8:32 AM 57.2 °F - 39.2 °F 51% 30.49 in 10.0 mi WSW 4.6 mph - N/A   Overcast
8:52 AM 53.6 °F - 41.0 °F 62% 30.49 in 10.0 mi West 34.5 mph 41.4 mph N/A   Overcast
9:12 AM 50.0 °F - 41.0 °F 71% 30.51 in 10.0 mi West 17.3 mph - N/A Rain Light Rain
9:32 AM 50.0 °F - 42.8 °F 76% 30.50 in 7.0 mi West 13.8 mph 19.6 mph N/A Rain Rain
9:52 AM 51.8 °F - 42.8 °F 71% 30.50 in 10.0 mi West 13.8 mph 21.9 mph N/A   Overcast
10:12 AM 53.6 °F - 44.6 °F 72% 30.50 in 10.0 mi SSW 8.1 mph - N/A   Overcast
10:32 AM 53.6 °F - 42.8 °F 67% 30.49 in 10.0 mi West 11.5 mph - N/A   Overcast
10:52 AM 59.0 °F - 42.8 °F 55% 30.49 in 10.0 mi West 11.5 mph 25.3 mph N/A   Scattered Clouds
11:12 AM 59.0 °F - 42.8 °F 55% 30.50 in 10.0 mi West 11.5 mph 21.9 mph N/A   Mostly Cloudy
11:32 AM 59.0 °F - 39.2 °F 48% 30.50 in 10.0 mi West 15.0 mph 21.9 mph N/A   Overcast
11:52 AM 59.0 °F - 41.0 °F 51% 30.49 in 10.0 mi West 18.4 mph - N/A   Overcast
12:12 PM 59.0 °F - 42.8 °F 55% 30.50 in 10.0 mi West 13.8 mph 18.4 mph N/A   Overcast
12:32 PM 59.0 °F - 41.0 °F 51% 30.50 in 10.0 mi West 12.7 mph 21.9 mph N/A   Overcast
12:52 PM 59.0 °F - 42.8 °F 55% 30.50 in 10.0 mi West 19.6 mph 24.2 mph N/A   Overcast
1:12 PM 53.6 °F - 42.8 °F 67% 30.50 in 10.0 mi West 20.7 mph - N/A Rain Light Rain
1:32 PM 53.6 °F - 42.8 °F 67% 30.51 in 10.0 mi West 9.2 mph 21.9 mph 0.01 in Thunderstorm Overcast
1:52 PM 59.0 °F - 44.6 °F 59% 30.49 in 10.0 mi West 9.2 mph 17.3 mph 0.01 in Thunderstorm Scattered Clouds
2:12 PM 59.0 °F - 42.8 °F 55% 30.48 in 10.0 mi West 8.1 mph 25.3 mph N/A   Mostly Cloudy
2:32 PM 59.0 °F - 41.0 °F 51% 30.48 in 10.0 mi West 11.5 mph 19.6 mph N/A   Overcast
2:52 PM 59.0 °F - 41.0 °F 51% 30.48 in 10.0 mi West 12.7 mph 25.3 mph N/A   Overcast
3:12 PM 60.8 °F - 42.8 °F 52% 30.48 in 10.0 mi West 18.4 mph 21.9 mph N/A   Mostly Cloudy
3:32 PM 60.8 °F - 41.0 °F 48% 30.47 in 10.0 mi West 19.6 mph 33.4 mph N/A Thunderstorm Overcast
3:52 PM 60.8 °F - 41.0 °F 48% 30.47 in 10.0 mi West 24.2 mph 36.8 mph N/A   Scattered Clouds
4:12 PM 60.8 °F - 42.8 °F 52% 30.46 in 10.0 mi West 21.9 mph 27.6 mph N/A   Mostly Cloudy
4:32 PM 60.8 °F - 42.8 °F 52% 30.45 in 10.0 mi West 24.2 mph 33.4 mph N/A   Overcast
4:52 PM 60.8 °F - 41.0 °F 48% 30.46 in 10.0 mi West 24.2 mph 39.1 mph N/A   Overcast
5:12 PM 60.8 °F - 42.8 °F 52% 30.46 in 10.0 mi West 19.6 mph 31.1 mph N/A   Mostly Cloudy
5:32 PM 60.8 °F - 41.0 °F 48% 30.47 in 10.0 mi West 20.7 mph 29.9 mph N/A   Scattered Clouds
5:52 PM 60.8 °F - 39.2 °F 45% 30.47 in 10.0 mi West 19.6 mph 29.9 mph N/A   Scattered Clouds
6:12 PM 60.8 °F - 39.2 °F 45% 30.46 in 10.0 mi West 18.4 mph 24.2 mph N/A   Clear
6:32 PM 60.8 °F - 41.0 °F 48% 30.46 in 10.0 mi West 11.5 mph - N/A   Scattered Clouds
6:52 PM 59.0 °F - 41.0 °F 51% 30.46 in 10.0 mi West 12.7 mph - N/A Thunderstorm Clear
7:12 PM 59.0 °F - 41.0 °F 51% 30.48 in 10.0 mi West 10.4 mph - N/A   Scattered Clouds
7:32 PM 59.0 °F - 41.0 °F 51% 30.48 in 10.0 mi WSW 8.1 mph - N/A   Mostly Cloudy
7:52 PM 59.0 °F - 37.4 °F 45% 30.47 in 10.0 mi SSW 9.2 mph 18.4 mph N/A Thunderstorm Mostly Cloudy
8:12 PM 59.0 °F - 37.4 °F 45% 30.47 in 10.0 mi SW 5.8 mph - N/A   Mostly Cloudy
8:32 PM 55.4 °F - 37.4 °F 51% 30.48 in 10.0 mi WSW 8.1 mph - N/A Thunderstorm Scattered Clouds
8:52 PM 55.4 °F - 37.4 °F 51% 30.49 in 10.0 mi SW 6.9 mph - N/A Thunderstorm Clear
9:12 PM 59.0 °F - 37.4 °F 45% 30.50 in 10.0 mi SSW 6.9 mph - N/A   Clear
9:32 PM 57.2 °F - 35.6 °F 44% 30.50 in 10.0 mi South 10.4 mph - N/A   Clear
9:52 PM 59.0 °F - 37.4 °F 45% 30.50 in 10.0 mi SW 5.8 mph - N/A   Scattered Clouds
10:12 PM 57.2 °F - 37.4 °F 48% 30.50 in 10.0 mi WSW 6.9 mph - N/A   Mostly Cloudy
10:32 PM 59.0 °F - 37.4 °F 45% 30.50 in 10.0 mi South 12.7 mph - N/A Thunderstorm Thunderstorm
10:52 PM 55.4 °F - 39.2 °F 54% 30.50 in 10.0 mi South 20.7 mph - N/A   Overcast
11:12 PM 53.6 °F - 41.0 °F 62% 30.49 in 10.0 mi South 19.6 mph - N/A   Mostly Cloudy
11:32 PM 53.6 °F - 41.0 °F 62% 30.49 in 10.0 mi South 18.4 mph 26.5 mph N/A   Scattered Clouds
11:52 PM 53.6 °F - 41.0 °F 62% 30.48 in 10.0 mi South 25.3 mph - N/A   Scattered Clouds